Date,TemperatureHighF,TemperatureAvgF,TemperatureLowF,DewpointHighF,DewpointAvgF,DewpointLowF,HumidityHigh,HumidityAvg,HumidityLow,PressureMaxIn,PressureMinIn,WindSpeedMaxMPH,WindSpeedAvgMPH,GustSpeedMaxMPH,PrecipitationSumIn
2013-2-1,42.4,26.1,19.0,31.0,15.6,8.0,91,65,46,30.45,29.98,27,12,43,0.00
2013-2-2,41.8,29.6,18.5,32.0,20.5,10.0,95,71,36,30.45,30.11,15,3,19,0.00
2013-2-3,41.7,34.5,29.0,32.0,27.2,21.0,94,75,55,30.15,29.99,30,9,36,0.02
2013-2-4,53.2,36.3,24.2,28.0,23.3,20.0,85,62,33,30.21,30.03,23,5,31,0.00
2013-2-5,56.1,40.9,30.6,40.0,32.2,26.0,93,73,47,30.07,29.96,12,3,17,0.00
2013-2-6,56.7,42.5,31.4,36.0,30.2,23.0,96,67,28,30.28,30.07,13,4,17,0.00
2013-2-7,45.6,39.9,32.7,40.0,34.0,27.0,96,81,53,30.29,30.03,12,3,21,0.38
2013-2-8,49.6,41.4,34.5,44.0,37.0,28.0,97,85,60,30.23,29.96,28,8,39,0.02
2013-2-9,55.5,38.2,29.6,30.0,24.1,13.0,89,63,19,30.39,30.21,19,6,28,0.00
2013-2-10,52.2,43.5,32.1,43.0,29.1,21.0,93,60,35,30.41,30.15,21,8,28,0.40
2013-2-11,56.6,50.2,41.4,52.0,45.5,32.0,95,85,55,30.16,30.02,18,4,23,0.00
2013-2-12,50.9,44.2,38.7,38.0,30.5,24.0,93,61,35,30.18,29.96,16,5,23,0.11
2013-2-13,49.7,41.1,35.7,43.0,37.4,31.0,94,87,62,29.95,29.67,28,8,30,0.11
2013-2-14,51.6,40.2,31.2,33.0,28.9,26.0,90,67,40,30.11,29.96,15,6,22,0.00
2013-2-15,56.6,38.6,26.5,38.0,30.9,25.0,95,77,36,30.17,30.00,15,5,26,0.01
2013-2-16,33.5,29.9,23.2,30.0,22.7,12.0,89,75,50,30.09,29.94,25,10,39,0.00
2013-2-17,34.4,26.0,20.4,18.0,11.9,8.0,85,56,36,30.35,30.10,35,11,39,0.00
2013-2-18,53.5,35.5,17.6,26.0,21.0,15.0,93,61,34,30.46,30.20,17,5,25,0.00
2013-2-19,52.3,42.4,34.7,40.0,27.7,15.0,90,59,31,30.20,29.91,20,8,31,0.02
2013-2-20,42.6,34.6,28.9,18.0,12.5,5.0,62,42,22,30.23,30.11,24,10,33,0.00
2013-2-21,63.6,40.5,22.5,36.0,17.2,1.0,89,49,9,30.30,30.11,15,4,18,0.20
2013-2-22,44.7,39.5,35.6,40.0,36.3,33.0,93,88,78,30.28,30.11,15,7,24,0.33
2013-2-23,55.4,46.1,39.3,50.0,43.6,38.0,96,91,80,30.12,29.86,8,2,13,0.20
2013-2-24,52.1,43.5,31.5,43.0,31.5,24.0,95,66,34,30.10,29.89,23,7,28,0.00
2013-2-25,48.4,37.7,28.4,31.0,27.1,25.0,93,68,43,30.18,30.04,17,5,20,0.00
2013-2-26,41.5,37.5,33.3,39.0,35.3,30.0,96,92,83,30.04,29.58,27,9,34,0.96
2013-2-27,52.5,42.4,37.2,38.0,33.6,30.0,92,72,53,29.85,29.71,15,6,19,0.02
2013-2-28,37.4,34.5,32.0,34.0,27.2,24.0,88,74,65,29.99,29.77,23,10,28,0.00